Location: Bucaritos
(10.0779°N, 67.0369°W)
Time: 16:09:38
(UTC+00:00)

CZ-4B R/B - Pass Details

Date: 27 June 2022
Orbit: 808 x 882 km, 99.1° (Epoch: 08 August)

Event Time Altitude Azimuth Distance (km) Brightness Sun altitude
Rises 23:39:07 0° 173° (S) 3,402 6.0 -11.2°
Reaches altitude 10° 23:41:29 10° 176° (S) 2,478 5.3 -11.7°
Maximum altitude 23:46:57 66° 257° (WSW) 939 3.6 -12.9°
Drops below altitude 10° 23:52:30 10° 339° (NNW) 2,518 6.4 -14.1°
Sets 23:54:55 0° 342° (NNW) 3,462 7.1 -14.7°
